Date,TemperatureHighF,TemperatureAvgF,TemperatureLowF,DewpointHighF,DewpointAvgF,DewpointLowF,HumidityHigh,HumidityAvg,HumidityLow,PressureMaxIn,PressureMinIn,WindSpeedMaxMPH,WindSpeedAvgMPH,GustSpeedMaxMPH,PrecipitationSumIn
2013-4-1,69.0,49.4,36.0,48.0,38.4,11.0,99,70,33,29.56,29.38,7,2,14,0.00
2013-4-2,50.0,38.0,30.0,17.0,11.6,-99.9,50,35,23,29.68,29.56,6,4,13,0.00
2013-4-3,52.0,38.9,30.0,15.0,11.3,8.0,45,32,21,29.80,29.68,7,4,14,0.00
2013-4-4,64.0,42.4,27.0,32.0,21.6,13.0,78,47,23,29.88,29.68,4,2,9,0.00
2013-4-5,73.0,50.2,38.0,36.0,25.9,16.0,83,45,16,29.68,29.44,5,2,12,0.00
2013-4-6,60.0,44.1,33.0,29.0,18.0,10.0,75,39,15,29.83,29.62,4,2,10,0.00
2013-4-7,61.0,46.2,35.0,43.0,35.8,27.0,95,69,43,29.83,29.65,6,3,15,0.00
2013-4-8,82.0,55.8,38.0,54.0,43.1,38.0,99,70,27,29.68,29.62,4,1,8,0.00
2013-4-9,88.0,66.0,45.0,54.0,43.6,34.0,98,54,16,29.65,29.59,7,2,13,0.00
2013-4-10,90.0,62.8,49.0,53.0,48.0,43.0,99,63,28,29.61,29.50,5,1,13,0.00
2013-4-11,65.0,53.8,43.0,55.0,48.2,36.0,99,83,53,29.65,29.47,4,2,12,0.00
2013-4-12,46.0,41.2,38.0,44.0,38.9,34.0,99,92,68,29.65,29.44,5,3,13,0.00
2013-4-13,72.0,48.1,37.0,41.0,37.3,34.0,99,71,29,29.62,29.45,3,2,8,0.00
2013-4-14,69.0,51.7,42.0,48.0,34.2,25.0,99,58,24,29.77,29.62,5,2,12,0.00
2013-4-15,70.0,50.4,38.0,38.0,30.2,25.0,85,49,25,29.88,29.77,4,1,8,0.00
2013-4-16,73.0,54.1,41.0,52.0,46.1,36.0,97,76,46,29.88,29.71,5,2,13,0.00
2013-4-17,82.0,61.4,47.0,54.0,43.6,35.0,97,60,21,29.82,29.71,3,1,8,0.00
2013-4-18,68.0,52.8,43.0,53.0,43.5,39.0,99,74,37,29.85,29.71,4,2,13,0.00
2013-4-19,74.0,58.0,50.0,61.0,55.5,50.0,99,92,61,29.71,29.41,6,3,17,0.00
2013-4-20,63.0,53.3,46.0,56.0,34.8,23.0,99,55,26,29.80,29.41,5,3,11,0.00
2013-4-21,46.0,37.3,28.0,30.0,21.4,14.0,75,53,43,30.06,29.80,3,2,10,0.00
2013-4-22,65.0,45.0,25.0,34.0,28.3,19.0,79,55,30,30.07,29.94,5,2,13,0.00
2013-4-23,52.0,43.9,39.0,40.0,35.9,31.0,84,74,63,29.94,29.68,3,2,12,0.00
2013-4-24,74.0,53.0,38.0,49.0,43.5,37.0,99,75,39,29.71,29.53,4,2,11,0.00
2013-4-25,74.0,56.7,43.0,50.0,33.8,24.0,99,49,16,29.80,29.56,5,2,11,0.00
2013-4-26,80.0,56.9,37.0,40.0,34.7,28.0,95,50,20,29.88,29.80,4,1,8,0.00
2013-4-27,81.0,58.5,42.0,38.0,31.0,22.0,73,41,14,29.89,29.83,3,1,7,0.00
2013-4-28,79.0,56.9,38.0,51.0,38.0,27.0,99,56,20,29.83,29.77,4,1,10,0.00
2013-4-29,59.0,52.6,49.0,49.0,45.5,43.0,87,77,66,29.80,29.74,2,1,8,0.00
2013-4-30,81.0,59.4,45.0,46.0,36.2,25.0,85,49,18,29.85,29.77,4,1,10,0.00